Regional Weather Roundup
Issued by NWS

Home | Current Version | Previous Version | Graphics & Text | Print | Product List | Glossary Off
Versions: 1 2 3 4 5 6 7 8 9 10 11 12 13 14 15 16 17 18 19 20 21 22 23 24 25 26 27 28 29 30 31 32 33 34 35 36 37 38 39 40 41 42 43 44 45 46 47 48 49 50

000
ASUS43 KTOP 130508
RWRKS

WEATHER ROUNDUP FOR KANSAS
NATIONAL WEATHER SERVICE GOODLAND KS
1100 PM CST TUE DEC 12 2017

NOTE:  "FAIR" INDICATES FEW OR NO CLOUDS BELOW 12,000 FEET WITH NO
SIGNIFICANT WEATHER AND/OR OBSTRUCTIONS TO VISIBILITY.

KSZ001>006-013>018-027>032-041>047-130600-
NORTHWEST KANSAS

CITY           SKY/WX    TMP DP  RH WIND       PRES   REMARKS
GOODLAND       CLEAR     40  15  36 W12       29.98F WCI  33
HAYS           CLEAR     46  18  32 W12       29.92F
HILL CITY      CLEAR     44  19  36 W12       29.91F
RUSSELL        CLEAR     39  19  44 SW12      29.90F WCI  32
$$

KSZ061>065-074>080-084>089-130600-
SOUTHWEST KANSAS

CITY           SKY/WX    TMP DP  RH WIND       PRES   REMARKS
DODGE CITY     CLEAR     45  14  28 SW13      29.99F
ELKHART        CLOUDY    49  20  31 W15       30.06F
GARDEN CITY    CLOUDY    38  14  37 W9        29.99F
GREAT BEND     CLEAR     35  16  45 SW8       29.95F
LIBERAL        CLOUDY    38  13  35 W9        30.04F
PRATT          CLEAR     35  16  46 SW8       29.97F
$$

KSZ066>073-081>083-090>101-130600-
SOUTHEAST KANSAS

CITY           SKY/WX    TMP DP  RH WIND       PRES   REMARKS
CHANUTE        CLEAR     36  27  69 S12       30.03F WCI  28
COFFEYVILLE    CLEAR     35  27  72 S10       30.06F WCI  27
HUTCHINSON     CLOUDY    33  23  66 CALM      29.96F
MEDICINE LODGE   N/A     38  23  55 CALM      29.98F
NEWTON         CLEAR     38  27  64 S13       29.97F WCI  30
PARSONS        CLEAR     32  26  78 S5        30.05F
WICHITA INTL   CLEAR     34  27  75 S8        29.98F
WICHITA JABRA  CLEAR     39  29  67 S13       29.98F WCI  31
WICHITA MCCONL CLEAR     37  27  66 SW10      29.98F WCI  30
WINFIELD       CLEAR     34  29  82 S7        30.03F
$$

KSZ007>012-019>026-033>040-048>060-102>105-130600-
NORTHEAST KANSAS

CITY           SKY/WX    TMP DP  RH WIND       PRES   REMARKS
CONCORDIA      CLOUDY    41  22  46 SW15      29.87F
EMPORIA        CLEAR     35  26  69 SE3       29.97F
LAWRENCE       CLEAR     36  27  69 S5        29.96F
MANHATTAN      CLEAR     38  25  59 SW7       29.93F
MARYSVILLE     CLEAR     36  27  69 S9        29.87F
OLATHE IND     CLEAR     33  26  75 S13       29.97F WCI  24
OLATHE EXE     CLEAR     33  25  72 SW10      29.97F WCI  25
SALINA         CLEAR     42  23  46 S15       29.92F
TOPEKA BILLARD CLEAR     37  28  70 SW6       29.95F
TOPEKA FORBES  CLEAR     37  28  70 S13       29.94F WCI  29
$$




USA.gov is the U.S. government's official web portal to all federal, state and local government web resources and services.